Dewpoint
56 45 43 37 25 24 20 21 23 23 20 18 21 37 46 46 47 46 58 64 70 73 76 77 77 77 77 77 76 76 76 76 76 76 76 76 76 76 76 75 75 74 72 70 68 67 65 64 63
50 45 43 33 24 20 19 19 19 13 14 15 17 23 43 43 51 52 61 65 69 72 75 76 77 77 77 77 76 76 76 76 76 76 76 76 76 76 75 75 74 73 70 68 67 65 63 62 61
47 44 39 32 22 20 18 19 17 16 12 13 16 20 39 43 46 51 62 66 69 71 73 76 77 77 77 77 76 75 76 76 76 76 76 76 76 75 75 75 74 73 70 68 65 65 65 64 61
35 38 39 30 27 25 18 18 18 17 16 13 16 27 41 46 47 49 62 65 68 69 72 77 77 76 76 76 76 76 76 76 76 76 76 76 76 75 75 75 74 73 70 67 66 68 67 66 64
28 34 32 32 29 25 25 24 21 16 16 17 15 24 40 45 47 51 55 66 66 66 73 76 77 77 76 76 76 76 76 76 76 76 76 76 76 75 75 74 74 73 71 70 68 69 68 67 67
27 30 30 29 30 30 29 24 17 16 15 17 18 17 40 39 36 45 55 56 66 65 73 75 77 77 76 76 76 76 76 76 76 76 76 76 75 75 75 74 74 73 71 70 70 69 69 68 68
22 25 26 29 30 30 29 25 17 15 17 17 26 28 39 35 35 35 50 54 64 68 71 73 75 76 77 76 76 76 76 76 75 75 75 75 75 75 74 73 73 72 71 71 70 70 69 69 69
24 24 23 25 27 28 30 26 21 18 19 23 33 31 36 39 35 33 34 51 63 69 71 72 75 75 75 75 76 76 76 76 75 75 75 75 75 74 73 72 72 72 71 71 70 70 70 70 69
23 21 21 23 26 26 26 25 25 23 23 26 29 31 36 35 33 31 33 36 60 68 69 70 73 74 74 74 75 75 76 75 75 75 75 74 72 72 72 71 71 72 72 71 71 71 70 70 70
18 19 20 22 23 22 21 20 22 27 28 29 32 33 33 34 32 31 32 35 54 63 67 68 70 71 71 72 74 74 74 74 74 73 73 72 71 70 70 70 71 71 71 72 71 71 71 70 67
17 16 20 21 20 20 19 19 20 24 28 30 31 33 35 34 32 32 32 43 55 62 62 65 68 69 68 70 73 73 73 73 72 72 72 71 69 69 68 66 67 68 70 69 70 69 69 67 65
13 17 18 20 21 21 20 20 20 21 34 34 37 37 38 32 33 31 33 39 46 61 61 63 66 66 65 71 70 70 71 71 71 71 71 70 68 66 66 65 65 66 66 66 64 66 65 65 62
13 14 14 18 20 20 21 21 21 21 37 37 34 37 38 33 37 32 35 41 45 53 62 63 65 65 64 69 68 67 68 68 69 69 70 69 67 67 67 64 64 65 65 65 63 62 63 63 62
14 12 12 11 13 17 19 19 20 22 28 29 32 32 33 30 30 30 34 37 47 52 59 64 65 65 65 68 67 65 65 66 67 68 69 70 67 66 67 67 67 67 65 65 64 62 61 63 62
15 14 13 13 15 16 17 17 19 23 24 23 23 24 30 30 29 29 34 37 49 51 59 65 67 68 66 70 71 70 65 66 66 67 68 68 69 65 66 68 66 67 67 66 65 64 65 65 64
14 15 13 12 13 14 17 13 17 21 21 23 23 22 22 28 28 28 33 41 53 54 55 59 65 69 67 69 69 69 70 69 64 66 67 68 68 70 68 69 68 67 66 67 66 65 64 64 63
15 12 12 13 14 12 13 13 17 21 18 17 20 24 22 24 30 32 41 46 55 56 57 60 66 69 69 70 71 70 69 69 69 68 69 68 68 69 70 69 68 68 67 67 65 66 65 63 63
13 11 11 12 12 10 9 9 13 18 16 16 21 21 28 30 29 30 48 48 54 53 53 56 65 68 69 68 69 70 70 69 68 67 67 70 70 69 70 69 69 68 68 65 64 65 66 64 63
13 12 11 13 15 14 12 11 16 18 21 18 19 20 24 25 28 32 45 48 54 53 53 54 62 66 69 69 68 68 67 67 67 67 66 66 70 71 69 68 69 69 67 65 64 64 65 63 64
15 15 16 17 16 13 16 18 18 18 20 21 23 26 24 27 28 33 41 44 47 49 55 54 56 64 67 68 68 67 67 67 65 65 65 65 66 68 69 70 68 68 66 65 65 64 63 65 65
12 15 16 14 14 13 15 17 21 20 19 18 19 22 28 28 30 33 40 42 46 52 54 54 57 60 64 68 67 67 68 68 66 66 65 66 66 66 68 69 68 68 66 64 64 64 65 64 65
11 15 13 13 15 14 18 13 16 19 19 19 18 17 21 28 32 33 34 43 44 46 51 51 52 54 56 61 68 66 64 65 67 66 64 65 65 65 66 69 68 66 66 64 64 66 67 67 66
12 16 14 18 16 15 13 14 13 17 14 16 20 19 20 21 27 35 39 42 46 49 47 48 49 52 53 56 60 66 66 67 66 67 68 67 66 68 68 68 68 67 65 65 66 65 66 68 68
17 19 19 19 16 14 14 15 13 14 14 15 19 21 23 22 29 32 36 38 39 46 49 48 50 52 53 55 57 60 61 62 65 64 62 64 66 65 66 69 68 68 67 66 67 68 68 67 65
18 17 15 16 15 13 15 17 15 19 19 17 18 22 21 23 26 36 36 36 37 37 43 49 51 50 50 52 53 54 56 60 60 61 63 64 64 64 64 65 68 68 68 67 66 67 64 62 61
35 30 20 17 20 19 25 26 27 27 24 24 25 25 26 25 28 33 36 36 35 38 37 38 43 46 48 51 52 55 55 59 58 59 59 59 64 64 63 63 65 66 64 62 63 64 61 62 62
32 30 30 23 19 24 24 24 25 24 25 23 23 23 24 26 31 30 38 38 35 39 39 40 38 40 39 41 48 50 53 56 57 56 58 61 62 65 66 65 67 66 65 63 63 64 62 62 64
29 32 28 32 24 20 21 21 17 30 28 24 26 27 25 26 31 33 35 36 37 39 41 40 40 41 41 42 43 49 52 53 55 57 58 58 57 59 61 65 66 66 66 66 65 64 64 64 61
26 30 32 32 32 24 23 22 31 32 33 30 29 30 26 27 28 31 30 33 38 38 37 41 46 47 46 45 45 48 49 51 53 56 58 60 60 61 61 63 63 65 66 67 66 65 65 66 66
29 34 35 32 29 29 24 21 29 32 35 36 34 34 34 32 28 27 28 31 34 34 35 39 40 41 44 48 48 48 50 52 53 54 55 57 58 59 61 63 63 64 65 68 66 66 68 69 70
Lifted_Index
7 7 6 6 5 4 3 2 2 2 2 2 1 0 -1 -1 -2 -2 -2 -3 -4 -5 -6 -6 -6 -6 -5 -5 -4 -4 -4 -4 -4 -4 -4 -4 -3 -3 -3 -3 -2 -1 -0 1 2 3 4 5 5
7 6 6 5 5 3 2 2 2 2 2 2 2 1 0 -1 -2 -2 -2 -3 -4 -5 -5 -6 -6 -6 -6 -5 -5 -5 -4 -4 -4 -4 -4 -4 -3 -3 -3 -3 -2 -1 -0 1 2 3 4 5 5
6 6 5 5 4 3 2 2 3 3 3 2 2 2 1 0 -1 -1 -2 -3 -4 -5 -5 -6 -6 -6 -6 -5 -5 -5 -5 -5 -4 -4 -4 -4 -3 -3 -3 -3 -2 -1 0 1 3 3 4 5 5
6 6 5 5 5 3 3 3 3 3 2 3 3 2 2 1 0 -1 -2 -3 -4 -4 -5 -6 -7 -7 -6 -5 -5 -5 -5 -5 -5 -5 -4 -4 -4 -3 -3 -3 -2 -1 -0 1 2 3 4 4 4
6 6 5 5 5 4 3 3 4 3 2 2 3 3 3 2 1 -1 -2 -3 -3 -4 -6 -7 -7 -7 -7 -6 -5 -5 -5 -5 -5 -5 -5 -4 -4 -3 -3 -3 -2 -2 -0 1 1 2 3 3 3
6 6 5 5 5 4 3 3 3 2 2 2 3 3 3 3 2 0 -1 -2 -3 -4 -6 -7 -7 -7 -7 -7 -6 -6 -5 -5 -5 -5 -5 -5 -4 -3 -3 -3 -2 -2 -1 -0 1 1 2 2 2
6 6 6 5 5 4 3 2 2 2 1 1 2 2 3 3 3 2 0 -2 -3 -5 -6 -6 -7 -7 -7 -7 -6 -6 -6 -5 -5 -5 -5 -5 -4 -4 -3 -3 -2 -1 -1 -1 -0 0 1 1 1
6 6 6 6 5 4 3 2 1 1 1 1 1 2 2 3 3 4 2 -0 -3 -5 -6 -6 -7 -7 -7 -7 -7 -7 -6 -6 -6 -5 -5 -5 -4 -4 -3 -2 -2 -1 -1 -1 -1 -0 -0 0 0
7 7 6 6 5 4 3 2 1 1 1 1 1 1 2 3 3 4 3 1 -2 -4 -5 -6 -6 -7 -7 -7 -7 -7 -7 -6 -6 -6 -5 -5 -4 -4 -3 -2 -1 -1 -1 -2 -1 -1 -1 -1 -0
7 7 7 6 6 5 3 2 2 1 1 1 1 1 1 2 3 3 3 2 -1 -3 -4 -5 -6 -6 -6 -7 -7 -7 -6 -6 -6 -5 -5 -5 -4 -3 -3 -2 -1 -1 -1 -2 -2 -2 -2 -1 -1
7 7 7 7 6 5 4 3 2 2 1 1 1 0 1 2 3 3 3 2 1 -2 -3 -4 -5 -5 -5 -6 -6 -6 -6 -6 -5 -5 -5 -4 -4 -3 -2 -2 -1 -1 -1 -1 -2 -2 -2 -1 -1
6 7 7 6 6 5 4 4 3 2 1 1 1 0 1 2 3 3 3 3 2 -0 -2 -4 -4 -4 -5 -5 -5 -5 -5 -5 -5 -5 -5 -4 -3 -3 -2 -2 -1 -1 -1 -1 -1 -1 -1 -1 -1
6 6 6 6 5 5 4 4 3 3 1 1 1 1 1 2 3 3 3 3 2 0 -2 -4 -4 -4 -4 -5 -5 -4 -4 -4 -4 -4 -4 -4 -3 -3 -3 -2 -2 -1 -1 -1 -1 -1 -1 -1 -1
6 6 6 5 5 5 4 4 4 4 2 1 1 2 2 2 3 3 3 3 2 -0 -2 -4 -5 -5 -5 -5 -5 -4 -4 -4 -4 -4 -4 -4 -4 -3 -3 -3 -3 -3 -3 -3 -2 -2 -2 -2 -2
5 5 5 5 5 5 4 4 4 4 3 3 2 3 3 3 3 3 3 3 1 -0 -2 -4 -5 -5 -5 -6 -6 -5 -4 -4 -4 -4 -4 -4 -4 -4 -4 -4 -4 -4 -3 -3 -3 -3 -3 -3 -3
5 4 4 4 4 4 4 4 4 4 3 3 3 3 4 4 4 3 3 2 1 -1 -2 -3 -5 -6 -6 -6 -6 -6 -5 -5 -4 -4 -4 -4 -5 -4 -4 -5 -5 -4 -3 -3 -3 -3 -3 -3 -3
4 3 3 3 3 3 3 4 4 4 3 4 4 4 4 4 4 3 3 1 0 -1 -1 -2 -5 -6 -6 -6 -6 -6 -6 -5 -5 -5 -5 -5 -5 -5 -5 -6 -5 -4 -4 -3 -3 -3 -3 -3 -3
3 3 3 2 2 2 2 2 3 3 3 4 4 4 4 4 4 3 2 1 1 0 0 -1 -4 -6 -7 -6 -6 -6 -6 -5 -5 -5 -5 -5 -6 -6 -6 -6 -5 -5 -4 -3 -3 -3 -4 -4 -4
3 3 2 2 2 1 1 1 2 3 3 4 4 4 4 4 4 3 2 2 2 1 1 -0 -3 -5 -7 -7 -6 -6 -5 -5 -5 -5 -5 -5 -6 -6 -6 -5 -5 -5 -4 -4 -3 -3 -3 -4 -4
3 2 2 3 2 1 1 1 1 2 4 4 4 4 4 4 4 4 3 3 3 2 1 -0 -2 -4 -6 -7 -7 -6 -5 -5 -4 -4 -4 -4 -4 -5 -5 -5 -5 -4 -4 -3 -3 -2 -3 -4 -4
2 2 2 2 2 2 1 1 2 3 4 4 4 4 4 4 4 4 4 4 4 2 1 -0 -1 -2 -4 -6 -7 -6 -5 -5 -4 -4 -4 -3 -3 -4 -5 -5 -5 -4 -4 -3 -2 -3 -3 -4 -4
2 2 2 2 2 2 2 2 3 4 4 3 3 4 4 4 4 4 4 4 4 3 2 1 1 -0 -2 -4 -6 -6 -6 -5 -5 -4 -4 -3 -3 -3 -4 -4 -5 -4 -4 -3 -2 -3 -4 -4 -5
1 1 1 1 1 2 2 2 3 3 3 3 3 3 4 4 4 4 4 4 4 3 3 3 2 1 0 -1 -3 -5 -6 -5 -5 -5 -4 -4 -3 -3 -4 -4 -4 -4 -3 -3 -3 -3 -4 -5 -5
1 1 1 1 1 2 2 2 2 3 2 2 2 3 3 4 4 4 4 4 4 4 3 3 3 2 2 1 -1 -2 -3 -4 -4 -4 -4 -4 -3 -4 -4 -4 -4 -4 -3 -3 -3 -3 -4 -4 -3
0 0 0 0 1 1 1 1 2 2 2 1 1 2 3 4 4 4 4 4 4 4 4 4 3 3 3 2 1 0 -1 -2 -3 -3 -3 -3 -3 -3 -3 -3 -3 -3 -3 -3 -3 -3 -3 -2 -1
-0 -0 0 0 0 1 1 1 1 1 1 1 1 2 3 3 3 3 3 4 4 4 4 4 4 4 3 3 3 2 1 -0 -1 -1 -2 -2 -2 -3 -3 -3 -3 -3 -3 -3 -2 -1 -1 -0 -0
-1 -0 -0 0 0 1 1 1 1 1 1 1 1 1 2 2 2 2 3 3 3 4 4 5 5 5 5 4 4 3 2 1 1 -0 -1 -1 -2 -2 -3 -3 -3 -3 -2 -2 -1 -1 -1 -1 -1
-1 -1 -1 -0 0 0 1 1 1 0 0 1 1 1 1 1 1 2 2 2 3 4 4 4 4 4 5 5 5 4 4 3 2 1 -0 -1 -1 -1 -2 -3 -3 -3 -3 -3 -3 -2 -2 -2 -2
-1 -0 -0 -0 0 0 1 1 0 -0 0 1 1 1 1 1 1 1 1 2 3 3 4 4 4 4 4 4 4 4 4 4 3 2 1 0 -1 -1 -2 -2 -3 -3 -4 -4 -5 -4 -4 -4 -5
-0 -0 0 -0 0 0 0 1 0 -0 0 0 1 1 1 1 1 1 1 1 2 3 3 4 4 4 4 4 4 4 4 4 3 2 1 1 -0 -1 -2 -3 -3 -4 -5 -6 -6 -6 -5 -6 -7